Location: Cran-Gévrier
(45.9039°N, 6.1012°E)
Time: 20:42:43
(UTC+00:00)

STRAND 1 - Pass Details

Date: 16 December 2023
Orbit: 766 x 778 km, 98.4° (Epoch: 28 February)

Event Time Altitude Azimuth Distance (km) Brightness Sun altitude
Exits shadow 19:59:36 15° 288° (WNW) 1,975 ? -42.0°
Drops below altitude 10° 20:01:36 10° 265° (W) 2,313 ? -42.4°
Sets 20:04:44 0° 245° (WSW) 3,238 ? -42.9°
